Regional Weather Roundup
Issued by NWS Sterling, VA

Home | Current Version | Previous Version | Graphics & Text | Print | Product List | Glossary On
Versions: 1 2 3 4 5 6 7 8 9 10 11 12 13 14 15 16 17 18 19 20 21 22 23 24 25 26 27
000
ASUS41 KLWX 180111
RWRLWX

REGIONAL WEATHER ROUNDUP
NATIONAL WEATHER SERVICE BALTIMORE MD/WASHINGTON DC
900 PM EDT THU AUG 17 2017

Note: "FAIR" indicates few or no clouds below 12,000 feet
with no significant weather and/or obstructions to visibility.
 TC=TEMPERATURE CELSIUS

 * =Non NWS site. Station does not report precipitation (e.g. rain,
    snow, etc.), thunder, or fog.

DCZ001-MDZ009-015-VAZ040>042-051-053>054-180200-
WASHINGTON METRO

CITY           SKY/WX    TMP DP  RH WIND       PRES   REMARKS
WASHINGTON NAT PTCLDY    83  75  77 S9        29.94R HX  90
DULLES         PTCLDY    81  73  76 S8        29.94R
ANDREWS AFB    CLEAR     78  75  90 S7        29.94R
FT BELVOIR     CLEAR     80  72  77 SE3       29.94R
QUANTICO       PTCLDY    83  76  79 S12       29.94R HX  91
COLLEGE PARK*  CLEAR     76  74  96 CALM      29.93R
LEESBURG*      PTCLDY    82  77  83 S12       29.94R HX  91
MANASSAS*      CLOUDY    78  73  84 S6        29.94R
GAITHERSBURG*  CLEAR     77  74  90 SE6       29.96R

$$

MDZ006>007-011-014-180200-
BALTIMORE METRO

CITY           SKY/WX    TMP DP  RH WIND       PRES   REMARKS
BWI AIRPORT    PTCLDY    77  75  93 SE5       29.93S
MD SCIENCE CTR   N/A     81  74  79 MISG      29.93S
MARTIN STATE   CLEAR     81  77  89 S7        29.94F
ANNAPOLIS      CLEAR     80  75  84 S9        29.93S
FORT MEADE*    CLEAR     73  72  94 SE3       29.95S

$$

MDZ012-015-019>023-180200-
MARYLAND EASTERN SHORE

CITY           SKY/WX    TMP DP  RH WIND       PRES   REMARKS
OCEAN CITY     CLOUDY    77  74  90 VRB6      29.98F
SALISBURY      CLOUDY    75  73  93 SE5       29.97F
BAY BRIDGE AP* CLEAR     79  73  83 S8        29.93S
CAMBRIDGE*     CLEAR     75  70  83 SE6       29.95S
EASTON*        MOCLDY    81  72  74 S7        29.98F

$$

MDZ017>025-180200-
SOUTHERN MARYLAND

CITY           SKY/WX    TMP DP  RH WIND       PRES   REMARKS
PATUXENT RIVER PTCLDY    78  72  81 S8        29.95R
ST INIGOES     CLEAR     79  71  76 SE7       29.95R
LEONARDTOWN*   CLEAR     77  70  78 SE5       29.97S

$$

MDZ003>005-180200-
NORTH CENTRAL MARYLAND

CITY           SKY/WX    TMP DP  RH WIND       PRES   REMARKS
FREDERICK*     NOT AVBL
HAGERSTOWN APT MOCLDY    83  75  77 SE10      29.92S HX  90
WESTMINSTER*   PTCLDY    79  73  83 SE8       29.95S

$$

MDZ501>502-180200-
WESTERN MARYLAND

CITY           SKY/WX    TMP DP  RH WIND       PRES   REMARKS
OAKLAND*       CLEAR     72  66  83 SW6       30.02R
CUMBERLAND*    MOCLDY    82  73  74 CALM      29.94S

$$

VAZ025>031-180200-
SHENANDOAH VALLEY

CITY           SKY/WX    TMP DP  RH WIND       PRES   REMARKS
WINCHESTER*    CLOUDY    73  73 100 CALM      29.93R FOG
FRONT ROYAL*   CLOUDY    81  73  78 S7        29.91S
LURAY*         PTCLDY    81  73  78 S3        29.93S
NEW MARKET*    CLOUDY    80  73  79 CALM      29.91F
STAUNTON*      RAIN      77  72  85 W5        29.99R
WAYNESBORO*    CLOUDY    77  74  91 SW5       29.98F

$$

WVZ021-048>050-054>055-180200-
EASTERN WEST VIRGINIA PANHANDLE

CITY           SKY/WX    TMP DP  RH WIND       PRES   REMARKS
MARTINSBURG    PTCLDY    80  74  81 CALM      29.91R
PETERSBURG*    CLOUDY    81  74  79 S7        29.94R

$$

VAZ036>039-050-180200-
CENTRAL FOOTHILLS

CITY           SKY/WX    TMP DP  RH WIND       PRES   REMARKS
CHARLOTTESVILL TSTM      79  76  90 N6        29.96R
CULPEPER*      CLOUDY    81  76  83 CALM      29.94R
ORANGE*        CLOUDY    79  73  83 S3        29.95R
GORDONSVILLE*  CLOUDY    81  77  86 SW5       29.95S
WARRENTON*     CLOUDY    81  72  73 SE5       29.93R

$$

VAZ055>057-180200-
NORTH AND CENTRAL PIEDMONT

CITY           SKY/WX    TMP DP  RH WIND       PRES   REMARKS
FREDERICKSBRG* CLEAR     80  74  80 SE6       29.93S
STAFFORD*      CLEAR     79  74  85 CALM      29.98R

$$

NCZ024-NYZ072-PAZ021-071-VAZ022-071-180200-
OTHER REGIONAL OBSERVATIONS

CITY           SKY/WX    TMP DP  RH WIND       PRES   REMARKS
NEW YORK CITY  PTCLDY    74  68  81 VRB5      30.01S
PHILADELPHIA   MOCLDY    79  70  74 S7        29.95F
PITTSBURGH     TSTM      75  73  93 S3        29.88R
ROANOKE        MOCLDY    78  74  87 SE5       30.01S
RICHMOND       PTCLDY    80  75  84 S6        29.95S
RALEIGH        CLOUDY    79  74  84 S7        29.98F

$$

ANZ530>537-180200-
MARINE OBSERVATIONS

STATION/POSITION TIME  TEMP    WIND        PRES
                       AIR SEA DIR/SP/G
                 (UTC) (F)     (DEG/KT/KT) (MB)
THOMAS PT LIGHT  0000   81 80  170/ 17/ 18   N/A
BALT KEY BRIDGE  0042   80     170/ 12/ 15 1013.0F
COVE POINT       0042   80     180/ 17/ 20 1015.0R
LEWISETTA        0042   79 84  190/  7/  9 1014.3R
SOLOMONS ISLAND  0042   80 82  160/  8/ 11   N/A
PINEY POINT      0042          180/ 11/ 13   N/A

$$





USA.gov is the U.S. government's official web portal to all federal, state and local government web resources and services.